78.6140; 161.1390;1; 350.721; 273.967;1984.06.09 12:00:00;-999.0;-999.0;-999.0; 999.0;    .000;    .000;   0.000; 90;
78.6095; 161.1160;2; 350.751; 274.029;1984.06.09 18:00:00;-999.0;-999.0;-999.0; 999.0;    .712;    .250;   0.119;225;
78.6050; 161.0930;2; 350.782; 274.092;1984.06.10 00:00:00;-999.0;-999.0;-999.0; 999.0;   1.422;    .500;   0.118;225;
78.6005; 161.0700;2; 350.812; 274.155;1984.06.10 06:00:00;-999.0;-999.0;-999.0; 999.0;   2.133;    .750;   0.118;225;
78.5960; 161.0470;2; 350.842; 274.217;1984.06.10 12:00:00;-999.0;-999.0;-999.0; 999.0;   2.844;   1.000;   0.119;225;
78.5915; 161.0242;2; 350.873; 274.280;1984.06.10 18:00:00;-999.0;-999.0;-999.0; 999.0;   3.553;   1.250;   0.118;225;
78.5870; 161.0015;2; 350.903; 274.342;1984.06.11 00:00:00;-999.0;-999.0;-999.0; 999.0;   4.260;   1.500;   0.118;225;
78.5825; 160.9787;2; 350.933; 274.405;1984.06.11 06:00:00;-999.0;-999.0;-999.0; 999.0;   4.968;   1.750;   0.118;225;
78.5780; 160.9560;2; 350.964; 274.467;1984.06.11 12:00:00;-999.0;-999.0;-999.0; 999.0;   5.675;   2.000;   0.118;225;
78.5813; 160.9265;2; 350.909; 274.515;1984.06.11 18:00:00;-999.0;-999.0;-999.0; 999.0;   6.418;   2.250;   0.124;299;
78.5845; 160.8970;2; 350.855; 274.564;1984.06.12 00:00:00;-999.0;-999.0;-999.0; 999.0;   7.162;   2.500;   0.124;299;
78.5878; 160.8675;2; 350.801; 274.612;1984.06.12 06:00:00;-999.0;-999.0;-999.0; 999.0;   7.904;   2.750;   0.124;299;
78.5910; 160.8380;2; 350.747; 274.661;1984.06.12 12:00:00;-999.0;-999.0;-999.0; 999.0;   8.648;   3.000;   0.124;299;
78.6010; 160.8018;2; 350.618; 274.699;1984.06.12 18:00:00;-999.0;-999.0;-999.0; 999.0;  10.015;   3.250;   0.228;324;
78.6110; 160.7656;2; 350.490; 274.736;1984.06.13 00:00:00;-999.0;-999.0;-999.0; 999.0;  11.382;   3.500;   0.228;324;
78.6210; 160.7294;2; 350.361; 274.774;1984.06.13 06:00:00;-999.0;-999.0;-999.0; 999.0;  12.750;   3.750;   0.228;324;
78.6310; 160.6930;2; 350.233; 274.812;1984.06.13 12:00:00;-999.0;-999.0;-999.0; 999.0;  14.117;   4.000;   0.228;324;
78.6408; 160.6568;2; 350.107; 274.850;1984.06.13 18:00:00;-999.0;-999.0;-999.0; 999.0;  15.461;   4.250;   0.224;324;
78.6505; 160.6206;2; 349.981; 274.888;1984.06.14 00:00:00;-999.0;-999.0;-999.0; 999.0;  16.804;   4.500;   0.224;324;
78.6603; 160.5843;2; 349.855; 274.926;1984.06.14 06:00:00;-999.0;-999.0;-999.0; 999.0;  18.148;   4.750;   0.224;324;
78.6700; 160.5480;2; 349.729; 274.964;1984.06.14 12:00:00;-999.0;-999.0;-999.0; 999.0;  19.490;   5.000;   0.224;324;
78.6800; 160.5114;2; 349.600; 275.001;1984.06.14 18:00:00;-999.0;-999.0;-999.0; 999.0;  20.861;   5.250;   0.228;324;
78.6900; 160.4746;2; 349.471; 275.039;1984.06.15 00:00:00;-999.0;-999.0;-999.0; 999.0;  22.232;   5.500;   0.228;324;
78.7000; 160.4379;2; 349.342; 275.077;1984.06.15 06:00:00;-999.0;-999.0;-999.0; 999.0;  23.603;   5.750;   0.228;324;
78.7100; 160.4010;2; 349.213; 275.114;1984.06.15 12:00:00;-999.0;-999.0;-999.0; 999.0;  24.973;   6.000;   0.228;324;
78.7200; 160.3656;2; 349.085; 275.149;1984.06.15 18:00:00;-999.0;-999.0;-999.0; 999.0;  26.327;   6.250;   0.226;325;
78.7300; 160.3301;2; 348.957; 275.183;1984.06.16 00:00:00;-999.0;-999.0;-999.0; 999.0;  27.680;   6.500;   0.226;325;
78.7400; 160.2946;2; 348.829; 275.218;1984.06.16 06:00:00;-999.0;-999.0;-999.0; 999.0;  29.034;   6.750;   0.226;325;
78.7500; 160.2590;2; 348.701; 275.252;1984.06.16 12:00:00;-999.0;-999.0;-999.0; 999.0;  30.387;   7.000;   0.225;325;
78.7598; 160.2218;2; 348.575; 275.291;1984.06.16 18:00:00;-999.0;-999.0;-999.0; 999.0;  31.738;   7.250;   0.225;323;
78.7695; 160.1846;2; 348.448; 275.329;1984.06.17 00:00:00;-999.0;-999.0;-999.0; 999.0;  33.089;   7.500;   0.225;323;
78.7793; 160.1474;2; 348.321; 275.367;1984.06.17 06:00:00;-999.0;-999.0;-999.0; 999.0;  34.441;   7.750;   0.225;323;
78.7890; 160.1100;2; 348.195; 275.405;1984.06.17 12:00:00;-999.0;-999.0;-999.0; 999.0;  35.792;   8.000;   0.225;323;
78.7990; 160.0728;2; 348.066; 275.442;1984.06.17 18:00:00;-999.0;-999.0;-999.0; 999.0;  37.164;   8.250;   0.229;324;
78.8090; 160.0356;2; 347.936; 275.479;1984.06.18 00:00:00;-999.0;-999.0;-999.0; 999.0;  38.537;   8.500;   0.229;324;
78.8190; 159.9984;2; 347.807; 275.516;1984.06.18 06:00:00;-999.0;-999.0;-999.0; 999.0;  39.908;   8.750;   0.229;324;
78.8290; 159.9610;2; 347.678; 275.553;1984.06.18 12:00:00;-999.0;-999.0;-999.0; 999.0;  41.281;   9.000;   0.229;324;
78.8338; 159.9967;2; 347.655; 275.464;1984.06.18 18:00:00;-999.0;-999.0;-999.0; 999.0;  42.214;   9.250;   0.156; 55;
78.8385; 160.0324;2; 347.632; 275.376;1984.06.19 00:00:00;-999.0;-999.0;-999.0; 999.0;  43.147;   9.500;   0.155; 56;
78.8433; 160.0682;2; 347.609; 275.287;1984.06.19 06:00:00;-999.0;-999.0;-999.0; 999.0;  44.081;   9.750;   0.156; 56;
78.8480; 160.1040;2; 347.586; 275.199;1984.06.19 12:00:00;-999.0;-999.0;-999.0; 999.0;  45.014;  10.000;   0.156; 56;
78.8468; 160.2278;2; 347.687; 274.958;1984.06.19 18:00:00;-999.0;-999.0;-999.0; 999.0;  47.679;  10.250;   0.444; 93;
78.8456; 160.3516;2; 347.787; 274.717;1984.06.20 00:00:00;-999.0;-999.0;-999.0; 999.0;  50.345;  10.500;   0.444; 93;
78.8443; 160.4753;2; 347.888; 274.476;1984.06.20 06:00:00;-999.0;-999.0;-999.0; 999.0;  53.011;  10.750;   0.444; 93;
78.8430; 160.5990;2; 347.988; 274.235;1984.06.20 12:00:00;-999.0;-999.0;-999.0; 999.0;  55.676;  11.000;   0.444; 93;
78.8421; 160.7220;2; 348.084; 273.994;1984.06.20 18:00:00;-999.0;-999.0;-999.0; 999.0;  58.325;  11.250;   0.442; 92;
78.8411; 160.8450;2; 348.179; 273.753;1984.06.21 00:00:00;-999.0;-999.0;-999.0; 999.0;  60.975;  11.500;   0.442; 92;
78.8401; 160.9680;2; 348.274; 273.512;1984.06.21 06:00:00;-999.0;-999.0;-999.0; 999.0;  63.624;  11.750;   0.442; 92;
78.8390; 161.0910;2; 348.370; 273.270;1984.06.21 12:00:00;-999.0;-999.0;-999.0; 999.0;  66.273;  12.000;   0.442; 93;
78.8333; 161.1526;2; 348.471; 273.168;1984.06.21 18:00:00;-999.0;-999.0;-999.0; 999.0;  67.744;  12.250;   0.245;116;
78.8275; 161.2141;2; 348.572; 273.065;1984.06.22 00:00:00;-999.0;-999.0;-999.0; 999.0;  69.215;  12.500;   0.245;116;
78.8218; 161.2756;2; 348.673; 272.962;1984.06.22 06:00:00;-999.0;-999.0;-999.0; 999.0;  70.687;  12.750;   0.245;116;
78.8160; 161.3370;2; 348.774; 272.860;1984.06.22 12:00:00;-999.0;-999.0;-999.0; 999.0;  72.158;  13.000;   0.245;116;
78.8080; 161.3600;2; 348.872; 272.841;1984.06.22 18:00:00;-999.0;-999.0;-999.0; 999.0;  73.177;  13.250;   0.170;151;
78.8000; 161.3831;2; 348.970; 272.823;1984.06.23 00:00:00;-999.0;-999.0;-999.0; 999.0;  74.196;  13.500;   0.170;151;
78.7920; 161.4061;2; 349.068; 272.805;1984.06.23 06:00:00;-999.0;-999.0;-999.0; 999.0;  75.215;  13.750;   0.170;151;
78.7840; 161.4290;2; 349.166; 272.787;1984.06.23 12:00:00;-999.0;-999.0;-999.0; 999.0;  76.234;  14.000;   0.170;151;
78.7845; 161.3985;2; 349.140; 272.846;1984.06.23 18:00:00;-999.0;-999.0;-999.0; 999.0;  76.896;  14.250;   0.110;275;
78.7850; 161.3680;2; 349.114; 272.905;1984.06.24 00:00:00;-999.0;-999.0;-999.0; 999.0;  77.558;  14.500;   0.110;275;
78.7855; 161.3375;2; 349.089; 272.965;1984.06.24 06:00:00;-999.0;-999.0;-999.0; 999.0;  78.220;  14.750;   0.110;275;
78.7860; 161.3070;2; 349.063; 273.024;1984.06.24 12:00:00;-999.0;-999.0;-999.0; 999.0;  78.882;  15.000;   0.110;275;
78.7920; 161.2428;2; 348.957; 273.132;1984.06.24 18:00:00;-999.0;-999.0;-999.0; 999.0;  80.422;  15.250;   0.257;296;
78.7980; 161.1786;2; 348.852; 273.239;1984.06.25 00:00:00;-999.0;-999.0;-999.0; 999.0;  81.962;  15.500;   0.257;296;
78.8040; 161.1143;2; 348.746; 273.347;1984.06.25 06:00:00;-999.0;-999.0;-999.0; 999.0;  83.502;  15.750;   0.257;296;
78.8100; 161.0500;2; 348.640; 273.455;1984.06.25 12:00:00;-999.0;-999.0;-999.0; 999.0;  85.041;  16.000;   0.257;296;
78.8090; 161.0230;2; 348.632; 273.512;1984.06.25 18:00:00;-999.0;-999.0;-999.0; 999.0;  85.635;  16.250;   0.099;259;
78.8080; 160.9960;2; 348.624; 273.570;1984.06.26 00:00:00;-999.0;-999.0;-999.0; 999.0;  86.228;  16.500;   0.099;259;
78.8070; 160.9690;2; 348.615; 273.627;1984.06.26 06:00:00;-999.0;-999.0;-999.0; 999.0;  86.821;  16.750;   0.099;259;
78.8060; 160.9420;2; 348.607; 273.685;1984.06.26 12:00:00;-999.0;-999.0;-999.0; 999.0;  87.414;  17.000;   0.099;259;
78.8002; 160.9402;2; 348.665; 273.709;1984.06.26 18:00:00;-999.0;-999.0;-999.0; 999.0;  88.055;  17.250;   0.107;183;
78.7945; 160.9385;2; 348.723; 273.732;1984.06.27 00:00:00;-999.0;-999.0;-999.0; 999.0;  88.695;  17.500;   0.107;183;
78.7887; 160.9368;2; 348.781; 273.756;1984.06.27 06:00:00;-999.0;-999.0;-999.0; 999.0;  89.336;  17.750;   0.107;183;
78.7830; 160.9350;2; 348.839; 273.780;1984.06.27 12:00:00;-999.0;-999.0;-999.0; 999.0;  89.976;  18.000;   0.107;183;
78.7773; 160.9330;2; 348.897; 273.805;1984.06.27 18:00:00;-999.0;-999.0;-999.0; 999.0;  90.617;  18.250;   0.107;184;
78.7715; 160.9310;2; 348.954; 273.829;1984.06.28 00:00:00;-999.0;-999.0;-999.0; 999.0;  91.258;  18.500;   0.107;184;
78.7657; 160.9290;2; 349.012; 273.854;1984.06.28 06:00:00;-999.0;-999.0;-999.0; 999.0;  91.899;  18.750;   0.107;184;
78.7600; 160.9270;2; 349.070; 273.878;1984.06.28 12:00:00;-999.0;-999.0;-999.0; 999.0;  92.539;  19.000;   0.107;184;
78.7575; 160.9315;2; 349.099; 273.878;1984.06.28 18:00:00;-999.0;-999.0;-999.0; 999.0;  92.834;  19.250;   0.049;161;
78.7550; 160.9360;2; 349.128; 273.878;1984.06.29 00:00:00;-999.0;-999.0;-999.0; 999.0;  93.129;  19.500;   0.049;161;
78.7525; 160.9405;2; 349.157; 273.878;1984.06.29 06:00:00;-999.0;-999.0;-999.0; 999.0;  93.423;  19.750;   0.049;161;
78.7500; 160.9450;2; 349.185; 273.878;1984.06.29 12:00:00;-999.0;-999.0;-999.0; 999.0;  93.718;  20.000;   0.049;161;
78.7497; 160.9547;2; 349.195; 273.859;1984.06.29 18:00:00;-999.0;-999.0;-999.0; 999.0;  93.931;  20.250;   0.036; 98;
78.7495; 160.9645;2; 349.204; 273.840;1984.06.30 00:00:00;-999.0;-999.0;-999.0; 999.0;  94.144;  20.500;   0.036; 98;
78.7493; 160.9742;2; 349.213; 273.822;1984.06.30 06:00:00;-999.0;-999.0;-999.0; 999.0;  94.358;  20.750;   0.036; 97;
78.7490; 160.9840;2; 349.223; 273.803;1984.06.30 12:00:00;-999.0;-999.0;-999.0; 999.0;  94.571;  21.000;   0.036; 98;
78.7487; 160.9935;2; 349.232; 273.785;1984.06.30 18:00:00;-999.0;-999.0;-999.0; 999.0;  94.779;  21.250;   0.035; 98;
78.7485; 161.0030;2; 349.241; 273.766;1984.07.01 00:00:00;-999.0;-999.0;   8.0;  75.0;  94.987;  21.500;   0.035; 98;
78.7483; 161.0125;2; 349.250; 273.748;1984.07.01 06:00:00;  -0.4;1003.1;   9.0;  45.0;  95.195;  21.750;   0.035; 98;
78.7480; 161.0220;2; 349.259; 273.730;1984.07.01 12:00:00;  -0.2;1003.0;   8.0;  50.0;  95.403;  22.000;   0.035; 98;
78.7477; 161.0323;2; 349.269; 273.710;1984.07.01 18:00:00;  -0.4;1001.3;   6.0;  30.0;  95.627;  22.250;   0.037; 97;
78.7475; 161.0425;2; 349.279; 273.691;1984.07.02 00:00:00;   0.0; 999.8;   4.0;  45.0;  95.851;  22.500;   0.037; 97;
78.7473; 161.0527;2; 349.288; 273.671;1984.07.02 06:00:00;   0.4;1000.2;   2.0; 240.0;  96.075;  22.750;   0.037; 97;
78.7470; 161.0630;2; 349.298; 273.651;1984.07.02 12:00:00;  -1.0;1001.0;   8.0; 295.0;  96.300;  23.000;   0.037; 97;
78.7458; 161.1068;2; 349.341; 273.568;1984.07.02 18:00:00;  -0.8;1004.5;   8.0; 265.0;  97.259;  23.250;   0.160; 98;
78.7445; 161.1505;2; 349.384; 273.484;1984.07.03 00:00:00;  -1.3;1008.7;   6.0; 270.0;  98.219;  23.500;   0.160; 98;
78.7433; 161.1943;2; 349.427; 273.400;1984.07.03 06:00:00;  -2.2;1011.1;   7.0; 255.0;  99.178;  23.750;   0.160; 98;
78.7420; 161.2380;2; 349.470; 273.317;1984.07.03 12:00:00;  -5.1;1011.8;   3.0; 200.0; 100.138;  24.000;   0.160; 98;
78.7335; 161.2109;2; 349.539; 273.401;1984.07.03 18:00:00;  -4.9;1010.9;   3.0; 165.0; 101.251;  24.250;   0.185;212;
78.7250; 161.1839;2; 349.608; 273.485;1984.07.04 00:00:00;  -2.0;1010.2;   4.0; 130.0; 102.363;  24.500;   0.185;212;
78.7165; 161.1569;2; 349.677; 273.570;1984.07.04 06:00:00;   1.6;1010.5;   0.0;   0.0; 103.476;  24.750;   0.186;212;
78.7080; 161.1300;2; 349.746; 273.654;1984.07.04 12:00:00;  -3.9;1010.6;   5.0;  30.0; 104.589;  25.000;   0.185;212;
78.6960; 161.0492;2; 349.813; 273.859;1984.07.04 18:00:00;  -3.6;1008.5;   5.0;  15.0; 106.795;  25.250;   0.368;233;
78.6840; 160.9687;2; 349.881; 274.064;1984.07.05 00:00:00;  -1.4;1007.7;   8.0;  15.0; 109.001;  25.500;   0.368;233;
78.6720; 160.8882;2; 349.948; 274.270;1984.07.05 06:00:00;  -0.9;1006.1;  11.0;  60.0; 111.206;  25.750;   0.368;233;
78.6600; 160.8080;2; 350.016; 274.475;1984.07.05 12:00:00;  -1.6;1007.3;  10.0;  15.0; 113.411;  26.000;   0.368;233;
78.6453; 160.7721;2; 350.142; 274.600;1984.07.05 18:00:00;  -1.7;1008.2;-999.0; 999.0; 115.229;  26.250;   0.303;206;
78.6305; 160.7363;2; 350.268; 274.726;1984.07.06 00:00:00;  -1.9;1009.0;  11.0; 330.0; 117.047;  26.500;   0.303;206;
78.6158; 160.7006;2; 350.395; 274.851;1984.07.06 06:00:00;  -1.6;1009.8;  11.0; 330.0; 118.865;  26.750;   0.303;206;
78.6010; 160.6650;2; 350.521; 274.977;1984.07.06 12:00:00;  -3.0;1010.9;  12.0; 345.0; 120.683;  27.000;   0.303;205;
78.5847; 160.6632;2; 350.687; 275.039;1984.07.06 18:00:00;  -3.2;1011.3;   9.0; 345.0; 122.490;  27.250;   0.301;181;
78.5685; 160.6615;2; 350.852; 275.101;1984.07.07 00:00:00;  -1.6;1012.2;   8.0; 340.0; 124.298;  27.500;   0.301;181;
78.5523; 160.6597;2; 351.018; 275.163;1984.07.07 06:00:00;  -0.6;1013.5;   8.0; 330.0; 126.104;  27.750;   0.301;181;
78.5360; 160.6580;2; 351.184; 275.225;1984.07.07 12:00:00;  -2.8;1015.6;   6.0; 310.0; 127.912;  28.000;   0.301;181;
78.5198; 160.6545;2; 351.349; 275.291;1984.07.07 18:00:00;  -3.5;1015.8;   6.0; 310.0; 129.720;  28.250;   0.301;182;
78.5035; 160.6510;2; 351.513; 275.357;1984.07.08 00:00:00;  -1.4;1017.2;   7.0; 320.0; 131.529;  28.500;   0.301;182;
78.4873; 160.6475;2; 351.678; 275.423;1984.07.08 06:00:00;   0.5;1018.0;   5.0; 286.0; 133.338;  28.750;   0.301;182;
78.4710; 160.6440;2; 351.842; 275.489;1984.07.08 12:00:00;   0.0;1018.3;   6.0; 260.0; 135.146;  29.000;   0.301;182;
78.4603; 160.7022;2; 351.994; 275.408;1984.07.08 18:00:00;   0.7;1018.2;   8.0; 260.0; 136.906;  29.250;   0.293;133;
78.4495; 160.7602;2; 352.147; 275.327;1984.07.09 00:00:00;   0.9;1018.7;   8.0; 245.0; 138.666;  29.500;   0.293;133;
78.4388; 160.8182;2; 352.299; 275.246;1984.07.09 06:00:00;   1.0;1019.4;   9.0; 250.0; 140.426;  29.750;   0.293;133;
78.4280; 160.8760;2; 352.451; 275.165;1984.07.09 12:00:00;   0.8;1019.4;   9.0; 245.0; 142.185;  30.000;   0.293;133;
78.4218; 160.9864;2; 352.594; 274.959;1984.07.09 18:00:00;   0.6;1019.1;   8.0; 240.0; 144.743;  30.250;   0.426;106;
78.4156; 161.0967;2; 352.736; 274.753;1984.07.10 00:00:00;   0.8;1018.3;   8.0; 230.0; 147.301;  30.500;   0.426;106;
78.4093; 161.2069;2; 352.879; 274.547;1984.07.10 06:00:00;   0.8;1016.4;   9.0; 230.0; 149.859;  30.750;   0.426;106;
78.4030; 161.3170;2; 353.021; 274.341;1984.07.10 12:00:00;   0.9;1016.4;   8.0; 230.0; 152.417;  31.000;   0.426;106;
78.4023; 161.3845;2; 353.076; 274.203;1984.07.10 18:00:00;   0.5;1016.0;   9.0; 230.0; 153.928;  31.250;   0.252; 93;
78.4015; 161.4520;2; 353.131; 274.065;1984.07.11 00:00:00;   0.8;1016.2;   7.0; 215.0; 155.440;  31.500;   0.252; 93;
78.4008; 161.5195;2; 353.186; 273.928;1984.07.11 06:00:00;   1.2;1016.0;   6.0; 220.0; 156.951;  31.750;   0.252; 93;
78.4000; 161.5870;2; 353.241; 273.790;1984.07.11 12:00:00;   0.1;1016.2;   7.0; 205.0; 158.463;  32.000;   0.252; 93;
78.4038; 161.6252;2; 353.228; 273.698;1984.07.11 18:00:00;   0.3;1015.1;   7.0; 205.0; 159.414;  32.250;   0.159; 64;
78.4075; 161.6635;2; 353.216; 273.606;1984.07.12 00:00:00;   0.8;1013.9;   8.0; 200.0; 160.364;  32.500;   0.158; 64;
78.4113; 161.7017;2; 353.203; 273.513;1984.07.12 06:00:00;   0.9;1013.1;   7.0; 210.0; 161.315;  32.750;   0.159; 64;
78.4150; 161.7400;2; 353.191; 273.421;1984.07.12 12:00:00;   0.8;1012.6;   9.0; 230.0; 162.266;  33.000;   0.159; 64;
78.4185; 161.7772;2; 353.180; 273.332;1984.07.12 18:00:00;   0.4;1015.0;   4.0; 270.0; 163.184;  33.250;   0.153; 65;
78.4220; 161.8145;2; 353.169; 273.242;1984.07.13 00:00:00;   0.6;1017.5;   5.0;  30.0; 164.102;  33.500;   0.153; 65;
78.4255; 161.8517;2; 353.158; 273.153;1984.07.13 06:00:00;  -0.3;1020.4;   7.0;  50.0; 165.020;  33.750;   0.153; 65;
78.4290; 161.8890;2; 353.148; 273.064;1984.07.13 12:00:00;  -1.1;1021.1;   6.0;  80.0; 165.938;  34.000;   0.153; 65;
78.4293; 161.9195;2; 353.166; 273.000;1984.07.13 18:00:00;  -0.4;1019.8;   7.0; 110.0; 166.619;  34.250;   0.113; 88;
78.4295; 161.9500;2; 353.184; 272.935;1984.07.14 00:00:00;  -0.2;1018.2;   6.0; 180.0; 167.299;  34.500;   0.113; 88;
78.4297; 161.9805;2; 353.202; 272.871;1984.07.14 06:00:00;   0.6;1016.0;   6.0; 220.0; 167.980;  34.750;   0.113; 88;
78.4300; 162.0110;2; 353.220; 272.807;1984.07.14 12:00:00;   0.9;1015.6;   6.0; 255.0; 168.661;  35.000;   0.113; 88;
78.4270; 162.0368;2; 353.268; 272.763;1984.07.14 18:00:00;   0.4;1015.1;   4.0; 275.0; 169.326;  35.250;   0.111;120;
78.4240; 162.0625;2; 353.317; 272.720;1984.07.15 00:00:00;   1.0;1015.1;   4.0; 320.0; 169.990;  35.500;   0.111;120;
78.4210; 162.0883;2; 353.365; 272.676;1984.07.15 06:00:00;   0.7;1015.4;   3.0; 265.0; 170.655;  35.750;   0.111;120;
78.4180; 162.1140;2; 353.414; 272.633;1984.07.15 12:00:00;   0.2;1015.0;   3.0; 250.0; 171.319;  36.000;   0.111;120;
78.4068; 162.1165;2; 353.532; 272.665;1984.07.15 18:00:00;   0.2;1014.5;   4.0; 240.0; 172.570;  36.250;   0.209;177;
78.3955; 162.1190;2; 353.650; 272.698;1984.07.16 00:00:00;   1.2;1014.1;   7.0; 255.0; 173.823;  36.500;   0.209;177;
78.3842; 162.1215;2; 353.769; 272.730;1984.07.16 06:00:00;   1.1;1011.9;   5.0; 210.0; 175.075;  36.750;   0.209;177;
78.3730; 162.1240;2; 353.887; 272.763;1984.07.16 12:00:00;   1.2;1009.4;   6.0; 210.0; 176.327;  37.000;   0.209;177;
78.3568; 162.1125;2; 354.048; 272.841;1984.07.16 18:00:00;   0.0;1007.7;   6.0; 290.0; 178.153;  37.250;   0.304;188;
78.3405; 162.1009;2; 354.208; 272.920;1984.07.17 00:00:00;   0.4;1008.6;   4.0; 340.0; 179.978;  37.500;   0.304;188;
78.3242; 162.0894;2; 354.369; 272.998;1984.07.17 06:00:00;  -0.2;1010.3;   6.0; 340.0; 181.803;  37.750;   0.304;188;
78.3080; 162.0780;2; 354.530; 273.077;1984.07.17 12:00:00;  -0.3;1012.7;   7.0; 340.0; 183.629;  38.000;   0.304;188;
78.2915; 162.0680;2; 354.694; 273.153;1984.07.17 18:00:00;   0.2;1015.8;   9.0; 345.0; 185.477;  38.250;   0.308;187;
78.2750; 162.0579;2; 354.858; 273.230;1984.07.18 00:00:00;  -1.0;1020.2;   8.0; 330.0; 187.326;  38.500;   0.308;187;
78.2585; 162.0480;2; 355.022; 273.306;1984.07.18 06:00:00;  -0.6;1020.7;   8.0; 290.0; 189.174;  38.750;   0.308;187;
78.2420; 162.0380;2; 355.187; 273.383;1984.07.18 12:00:00;  -0.4;1020.6;   9.0; 290.0; 191.023;  39.000;   0.308;187;
78.2255; 162.0269;2; 355.350; 273.461;1984.07.18 18:00:00;  -0.5;1019.0;   8.0; 300.0; 192.874;  39.250;   0.309;188;
78.2090; 162.0159;2; 355.514; 273.540;1984.07.19 00:00:00;  -0.1;1017.6;   8.0; 290.0; 194.726;  39.500;   0.309;188;
78.1925; 162.0049;2; 355.677; 273.619;1984.07.19 06:00:00;   0.2;1016.0;  11.0; 295.0; 196.578;  39.750;   0.309;188;
78.1760; 161.9940;2; 355.841; 273.698;1984.07.19 12:00:00;  -0.2;1014.1;   8.0; 285.0; 198.429;  40.000;   0.308;188;
78.1598; 161.9827;2; 356.001; 273.777;1984.07.19 18:00:00;  -0.4;1012.3;   6.0; 295.0; 200.254;  40.250;   0.304;188;
78.1435; 161.9714;2; 356.162; 273.855;1984.07.20 00:00:00;  -0.5;1012.9;   6.0; 330.0; 202.080;  40.500;   0.304;188;
78.1273; 161.9602;2; 356.323; 273.934;1984.07.20 06:00:00;  -0.6;1014.1;   7.0; 350.0; 203.905;  40.750;   0.304;188;
78.1110; 161.9490;2; 356.483; 274.013;1984.07.20 12:00:00;  -2.4;1016.4;   6.0; 330.0; 205.730;  41.000;   0.304;188;
78.0973; 161.9691;2; 356.640; 274.016;1984.07.20 18:00:00;  -2.2;1016.6;   7.0; 290.0; 207.326;  41.250;   0.266;163;
78.0835; 161.9891;2; 356.796; 274.020;1984.07.21 00:00:00;  -0.9;1015.2;   9.0; 270.0; 208.922;  41.500;   0.266;163;
78.0697; 162.0091;2; 356.953; 274.024;1984.07.21 06:00:00;  -0.4;1014.2;  10.0; 280.0; 210.519;  41.750;   0.266;163;
78.0560; 162.0290;2; 357.109; 274.027;1984.07.21 12:00:00;   0.2;1013.5;   8.0; 275.0; 212.115;  42.000;   0.266;163;
78.0440; 162.0681;2; 357.261; 273.983;1984.07.21 18:00:00;   0.6;1012.7;   7.0; 265.0; 213.725;  42.250;   0.268;146;
78.0320; 162.1072;2; 357.412; 273.940;1984.07.22 00:00:00;   0.1;1011.7;   7.0; 235.0; 215.333;  42.500;   0.268;146;
78.0200; 162.1461;2; 357.564; 273.896;1984.07.22 06:00:00;   0.1;1009.9;   7.0; 250.0; 216.942;  42.750;   0.268;146;
78.0080; 162.1850;2; 357.715; 273.852;1984.07.22 12:00:00;   0.0;1010.1;   4.0; 285.0; 218.551;  43.000;   0.268;146;
78.0027; 162.1842;2; 357.769; 273.871;1984.07.22 18:00:00;  -0.2;1011.0;   4.0; 330.0; 219.136;  43.250;   0.097;182;
77.9975; 162.1835;2; 357.823; 273.891;1984.07.23 00:00:00;   0.2;1012.2;   2.0;  30.0; 219.720;  43.500;   0.097;182;
77.9922; 162.1828;2; 357.877; 273.910;1984.07.23 06:00:00;   0.0;1013.3;   3.0; 345.0; 220.304;  43.750;   0.097;182;
77.9870; 162.1820;2; 357.931; 273.929;1984.07.23 12:00:00;  -0.5;1013.9;   3.0; 285.0; 220.888;  44.000;   0.097;182;
77.9873; 162.1478;2; 357.905; 274.002;1984.07.23 18:00:00;  -0.1;1013.3;   2.0; 260.0; 221.681;  44.250;   0.132;272;
77.9875; 162.1135;2; 357.878; 274.075;1984.07.24 00:00:00;   0.6;1013.8;   1.0; 200.0; 222.474;  44.500;   0.132;272;
77.9878; 162.0793;2; 357.852; 274.148;1984.07.24 06:00:00;   0.2;1015.1;   2.0;  25.0; 223.267;  44.750;   0.132;272;
77.9880; 162.0450;2; 357.826; 274.221;1984.07.24 12:00:00;  -0.2;1017.4;   5.0;  20.0; 224.061;  45.000;   0.132;272;
77.9865; 162.0282;2; 357.829; 274.262;1984.07.24 18:00:00;  -1.8;1019.1;   6.0;  35.0; 224.482;  45.250;   0.070;247;
77.9850; 162.0115;2; 357.833; 274.304;1984.07.25 00:00:00;  -1.4;1021.1;   6.0;  10.0; 224.905;  45.500;   0.070;247;
77.9835; 161.9947;2; 357.837; 274.345;1984.07.25 06:00:00;  -0.4;1022.3;   5.0;  25.0; 225.327;  45.750;   0.070;247;
77.9820; 161.9780;2; 357.841; 274.386;1984.07.25 12:00:00;  -2.0;1023.0;   4.0;  30.0; 225.749;  46.000;   0.070;247;
77.9798; 161.9693;2; 357.858; 274.413;1984.07.25 18:00:00;  -2.2;1022.7;   5.0; 340.0; 226.071;  46.250;   0.054;219;
77.9775; 161.9605;2; 357.875; 274.439;1984.07.26 00:00:00;  -0.8;1022.4;   4.0; 320.0; 226.393;  46.500;   0.054;219;
77.9753; 161.9518;2; 357.892; 274.466;1984.07.26 06:00:00;  -0.3;1021.2;   4.0; 270.0; 226.715;  46.750;   0.054;219;
77.9730; 161.9430;2; 357.910; 274.492;1984.07.26 12:00:00;  -1.0;1020.3;   6.0; 285.0; 227.037;  47.000;   0.054;219;
77.9703; 161.9357;2; 357.933; 274.517;1984.07.26 18:00:00;  -0.4;1018.4;   4.0; 310.0; 227.385;  47.250;   0.058;209;
77.9675; 161.9285;2; 357.956; 274.542;1984.07.27 00:00:00;   0.1;1017.8;   3.0;  25.0; 227.735;  47.500;   0.058;209;
77.9648; 161.9212;2; 357.980; 274.567;1984.07.27 06:00:00;   0.0;1017.8;   4.0;  15.0; 228.083;  47.750;   0.058;209;
77.9620; 161.9140;2; 358.003; 274.592;1984.07.27 12:00:00;  -1.2;1018.2;   5.0; 280.0; 228.433;  48.000;   0.058;209;
77.9610; 161.9070;2; 358.009; 274.611;1984.07.27 18:00:00;  -0.7;1017.6;   4.0; 320.0; 228.629;  48.250;   0.033;236;
77.9600; 161.9000;2; 358.014; 274.629;1984.07.28 00:00:00;  -0.4;1017.1;   4.0; 285.0; 228.826;  48.500;   0.033;236;
77.9590; 161.8930;2; 358.019; 274.648;1984.07.28 06:00:00;  -1.2;1015.9;   6.0; 260.0; 229.023;  48.750;   0.033;236;
77.9580; 161.8860;2; 358.025; 274.666;1984.07.28 12:00:00;  -0.8;1013.7;   6.0; 225.0; 229.220;  49.000;   0.033;236;
77.9580; 161.8783;2; 358.019; 274.683;1984.07.28 18:00:00;   0.0;1011.4;   6.0; 240.0; 229.399;  49.250;   0.030;270;
77.9580; 161.8705;2; 358.014; 274.700;1984.07.29 00:00:00;   0.3;1009.1;   5.0; 240.0; 229.579;  49.500;   0.030;270;
77.9580; 161.8627;2; 358.008; 274.716;1984.07.29 06:00:00;   0.4;1007.5;   4.0; 255.0; 229.759;  49.750;   0.030;270;
77.9580; 161.8550;2; 358.003; 274.733;1984.07.29 12:00:00;   0.0;1005.5;   3.0; 270.0; 229.939;  50.000;   0.030;270;